Zurück zum Katalog

CZ-3C DEB

LostGTO
NORAD 40173·DEBRIS·🇨🇳 China

Gestartet Oct 31, 2010 von Xichang Satellite Launch Center

Loading…

TLE

VeraltetSource: Space-Track

Epoche: Jan 6, 2014, 07:35 UTC

1 40173U 10057AB  14006.31657601  .00019769  00000-0  18039+0 0  9990
2 40173  22.9885 223.5019 7158557 191.9305 131.3613  2.28429479 16405

Verfolge CZ-3C DEB in Echtzeit mit AllMySat

Download on the App Store